DELTA 1 DEB, 7038

Orbit data source: Space-Track

DELTA 1 DEB, 7038 is space debris in SSO originally from a launch on Tue, 06 Nov 1973 UTC launched from the Air Force Western Test Range (AFWTR). Debris objects in space refer to the collection of defunct objects orbiting the Earth. Examples of debris include non-operational satellites, rocket bodies, and fragments generated from explosions, collisions, or faulty payload assembly.

Loading next visibility...
Identifier
7038, 1973-086AE
Orbit
SSO
Last TLE update
19 hours ago
Origin
Manufacturer
Unknown
Mission
Spacecraft
Bus & Motor
Unknown
Mass
Unknown
Launch date (UTC)
1973-11-06 (52 years ago)
Launch vehicle
Unknown
Launch site
Air Force Western Test Range (AFWTR)
Object type
Payload
Rocket body
Debris
Shape & HBR
Unknown
Radar Cross Section
Medium (>0.1 m² and <1 m²)

Expand to show TLE details & history

TLE from 19 hours ago
0 DELTA 1 DEB
1  7038U 73086AE  25126.34867792  .00000093  00000-0  12003-2 0  9994
2  7038 101.9072 327.2028 0128750 160.6266  20.7062 12.24346691297029
Epoch: 2025-05-06T08:22Z
Definitive object data (Epoch: 2025-05-06T08:22:05.772Z)
Latitude
-1.93707°
Longitude
156.82298°
Altitude
1,480.856 km
Speed
7.166 km/s
True Right ascension
09h 47m 11s
True Declination
-1° 55' 36"
Sunlit
Object was in daylight at TLE epoch
Visualization TLE readout
Latitude
75.57316°
Longitude
-76.67095°
Altitude
1,562.997 km
Speed
7.103 km/s
Apparent Right ascension
22h 06m 27s
Apparent Declination
32° 31' 54"
Sunlit
Object is in daylight
Visualization observer readout
Local Sidereal Time
11:27:04
Azimuth
17.517° NNE
Elevation
-15.188°
Doppler factor
1
Orbital elements
Apogee altitude
1,673.603 km
Perigee altitude
1,468.906 km
Semi-major axis
7,949.391 km
Eccentricity
0.012875
Inclination
101.9072°
RAAN
327.2028°
Arg. of periapsis
160.6266°
True anomaly
21.23581°
Mean anomaly
20.7062°
Eccentric anomaly
20.9702°
Mean motion
3.06226 °/min
BSTAR
0.0012003
Orbital period
117.56 mins
Loading maneuver chart data...
Loading SW <> Apogee altitude chart data...
Loading historical data...
Loading historical data...
Loading historical data...
Loading historical data...
Loading historical data...
Loading historical data...
Loading historical data...

DELTA 1 DEB Visibility forecast

Observer location: undefined°, undefined°

Span
Click to sort rows by Start time (UTC) header in descending order
Start Az.
Max El. time (UTC)
Max El. Az.
Max El.
End time (UTC)
End Az.
13 mins2025-05-07 03:36:37.107Z359.961° N2025-05-07 03:43:37.107Z295.067° NW30.743°2025-05-07 03:49:37.107Z242.055° WSW
9 mins2025-05-07 11:03:37.107Z81.618° E2025-05-07 11:07:37.107Z50.812° ENE19.225°2025-05-07 11:12:37.107Z13.056° NNE
17 mins2025-05-07 12:53:37.107Z154.901° SSE2025-05-07 13:01:37.107Z85.919° E44.685°2025-05-07 13:10:37.107Z344.437° N
11 mins2025-05-07 14:52:37.107Z227.013° WSW2025-05-07 14:57:37.107Z264.521° W20.518°2025-05-07 15:03:37.107Z310.022° NW
13 mins2025-05-08 01:14:37.107Z42.56° NE2025-05-08 01:20:37.107Z101.614° ESE29.457°2025-05-08 01:27:37.107Z160.093° S
14 mins2025-05-08 03:09:37.107Z4.263° NNE2025-05-08 03:15:37.107Z303.691° NW38.149°2025-05-08 03:23:37.107Z224.061° SW
|